MST,Max TemperatureF,Mean TemperatureF,Min TemperatureF,Max Dew PointF,MeanDew PointF,Min DewpointF,Max Humidity, Mean Humidity, Min Humidity, Max Sea Level PressureIn, Mean Sea Level PressureIn, Min Sea Level PressureIn, Max VisibilityMiles, Mean VisibilityMiles, Min VisibilityMiles, Max Wind SpeedMPH, Mean Wind SpeedMPH, Max Gust SpeedMPH,PrecipitationIn, CloudCover, Events, WindDirDegrees
2012-1-1,34,24,13,22,15,9,84,70,55,30.79,30.65,30.45,10,10,10,14,5,16,0.00,0,,266
2012-1-2,36,26,15,25,17,10,81,69,56,30.77,30.61,30.37,10,10,10,17,8,17,0.00,0,,268
2012-1-3,47,34,20,30,23,16,84,64,43,30.37,30.26,30.13,10,10,10,17,9,18,0.00,0,,286
2012-1-4,42,33,23,29,24,18,88,70,52,30.51,30.41,30.33,10,10,10,20,9,21,0.00,0,,269
2012-1-5,47,37,27,31,26,21,85,67,49,30.32,30.08,29.86,10,10,10,24,9,26,0.00,0,,245
2012-1-6,42,35,27,30,26,21,85,72,59,30.17,30.04,29.86,10,10,10,20,7,21,0.00,0,,280
2012-1-7,37,30,22,29,24,17,85,74,63,30.14,30.03,29.87,10,10,10,18,9,24,T,2,,59
2012-1-8,32,26,19,25,22,18,96,84,72,30.34,30.24,30.12,10,10,10,16,5,20,0.00,3,,316
2012-1-9,41,29,17,31,23,15,92,78,64,30.36,30.27,30.17,10,10,8,17,10,18,0.00,0,,253
2012-1-10,45,35,25,31,26,21,85,74,62,30.13,29.96,29.75,10,10,10,17,7,18,0.00,0,,244
2012-1-11,36,23,10,30,21,4,89,75,61,30.32,30.07,29.74,10,6,0,32,16,36,0.01,6,Fog-Snow,357
2012-1-12,37,21,4,22,10,1,80,62,43,30.33,30.25,30.14,10,10,10,15,7,15,0.00,1,,263
2012-1-13,43,29,15,24,16,9,75,56,36,30.22,30.14,30.05,10,10,10,21,9,22,0.00,0,,244
2012-1-14,38,27,15,24,19,12,81,65,48,30.30,30.17,30.02,10,10,10,18,6,21,0.00,0,,249
2012-1-15,52,38,24,28,23,17,75,58,40,29.98,29.80,29.68,10,10,10,23,16,26,0.00,0,,247
2012-1-16,44,35,25,30,26,19,85,70,54,30.08,29.71,29.54,10,10,10,26,13,31,0.00,1,,86
2012-1-17,28,23,17,20,14,9,84,65,46,30.34,30.23,30.10,10,10,10,20,9,23,0.00,2,,103
2012-1-18,47,31,15,29,20,11,81,61,40,30.16,29.95,29.77,10,10,10,20,7,21,0.00,0,,240
2012-1-19,55,43,30,35,29,24,92,67,41,29.82,29.72,29.59,10,10,10,20,7,21,0.00,0,,117
2012-1-20,55,42,28,36,30,25,89,65,41,30.05,29.80,29.59,10,10,10,20,6,25,0.00,2,,108
2012-1-21,58,42,25,33,28,23,92,65,38,29.96,29.58,29.29,10,10,10,33,10,43,0.00,0,,242
2012-1-22,51,41,30,31,26,20,76,59,42,29.96,29.59,29.22,10,10,10,45,15,54,0.00,1,,307
2012-1-23,45,34,23,30,25,20,92,69,45,29.96,29.89,29.82,10,10,10,9,3,12,0.00,0,,90
2012-1-24,48,37,26,33,27,24,92,71,49,30.29,30.05,29.80,10,10,10,28,8,32,0.00,1,,326
2012-1-25,55,40,24,31,24,20,88,58,28,30.25,30.12,29.94,10,10,10,18,8,20,0.00,0,,241
2012-1-26,51,40,29,32,28,23,82,62,42,30.19,29.97,29.72,10,10,10,16,9,18,0.00,0,,212
2012-1-27,46,38,29,30,24,18,85,63,40,30.40,30.08,29.72,10,10,10,26,11,31,0.00,6,,11
2012-1-28,43,32,21,22,19,13,81,55,29,30.42,30.33,30.25,10,10,10,13,5,14,0.00,0,,111
2012-1-29,60,41,22,28,20,15,77,49,21,30.30,30.18,30.00,10,10,10,17,8,18,0.00,0,,252
2012-1-30,67,49,31,30,23,19,69,43,16,29.96,29.82,29.67,10,10,10,18,10,21,0.00,0,,255
2012-1-31,51,40,28,26,22,18,78,54,29,30.08,30.00,29.81,10,10,10,16,8,18,0.00,0,,131